Location: Caltech
(34.1382°N, 118.1253°W)
Time: 17:28:38
(UTC-07:00)

PANSAT - Visible Passes

Search period start: 31 October 2014 00:00
Search period end: 09 November 2014 23:00
Orbit: 489 x 496 km, 28.5° (Epoch: 30 October)

Date Brightness Start Highest point End Pass type
(mag) Time Alt. Az. Time Alt. Az. Time Alt. Az.
31 Oct 8.7 05:25:39 33° S 05:25:42 33° S 05:29:11 10° ESE visible
01 Nov 9.6 05:01:35 24° SE 05:01:35 24° SE 05:03:36 10° ESE visible
01 Nov 9.0 06:36:31 10° WSW 06:39:55 30° S 06:43:17 10° SE visible
02 Nov 10.6 03:37:31 13° ESE 03:37:31 13° ESE 03:38:01 10° ESE visible
02 Nov 8.9 05:11:54 16° WSW 05:14:18 29° S 05:17:40 10° SE visible
03 Nov 8.9 04:47:49 26° SW 04:48:42 28° S 04:52:02 10° SE visible
04 Nov 9.2 04:23:44 26° S 04:23:44 26° S 04:26:23 10° SE visible
05 Nov 10.1 03:59:39 16° SE 03:59:39 16° SE 04:00:43 10° SE visible
05 Nov 10.0 05:35:43 10° SW 05:37:01 11° SSW 05:38:19 10° S visible
06 Nov 10.0 05:10:23 10° SW 05:11:22 11° SSW 05:12:21 10° S visible
07 Nov 10.1 04:45:56 10° SSW 04:45:56 10° SSW 04:46:08 10° SSW visible
